Location: Navalespino
(40.5894°N, 4.2660°W)
Time: 02:34:35
(UTC+00:00)

Cosmos 1980 Rocket - Pass Details

Date: 18 April 2024
Orbit: 827 x 851 km, 71.0° (Epoch: 28 May)

Event Time Altitude Azimuth Distance (km) Brightness Sun altitude
Exits shadow 21:55:30 25° 47° (NE) 1,615 3.6 -28.8°
Drops below altitude 10° 21:57:59 10° 35° (NE) 2,456 4.8 -29.1°
Sets 22:00:30 0° 30° (NNE) 3,399 5.6 -29.4°
